Theta_e
306 307 307 307 305 304 302 301 301 301 301 301 301 301 302 302 302 301 300 306 301 296 297 300 300 297 296 295 289 295 293 295 294 291 291 291 290 292 292 293 291 290 287 287 287 284 282 297 296 287 293 296 296 297
306 307 307 306 304 302 301 301 300 300 300 301 301 301 302 303 304 303 297 304 305 299 299 304 303 304 302 301 296 296 293 293 293 293 293 292 291 293 291 286 296 289 293 287 288 290 298 301 298 299 300 296 297 297
306 307 307 305 302 301 301 300 300 300 300 300 301 301 303 304 304 304 300 301 301 297 297 299 299 306 309 307 309 294 295 298 297 303 294 292 287 294 288 290 292 296 300 294 292 295 296 296 300 300 300 299 299 300
306 307 306 303 301 301 300 300 300 300 300 300 301 301 302 304 303 302 299 301 300 298 290 296 306 303 307 309 308 304 302 302 302 299 294 291 287 296 292 294 294 297 299 296 295 297 298 297 298 298 298 299 298 299
306 306 304 302 301 300 300 299 299 299 300 300 301 302 302 303 303 302 301 301 302 295 290 292 300 305 309 307 306 305 303 302 300 295 292 290 293 294 296 295 294 299 295 293 290 296 292 294 297 298 296 296 298 299
306 305 302 300 300 299 299 299 299 299 300 301 302 302 302 302 301 300 296 306 305 303 291 286 301 301 305 307 304 303 302 300 299 295 293 295 300 295 290 289 298 301 302 303 297 299 298 297 297 298 297 298 300 301
305 303 301 300 299 299 299 298 299 299 300 300 301 302 302 303 301 297 297 301 305 303 292 288 294 303 305 305 306 304 304 300 298 294 291 293 296 297 293 290 299 301 301 302 300 298 293 295 294 298 298 298 302 302
304 301 299 299 299 298 298 298 299 299 300 300 301 301 303 303 302 298 305 304 306 299 296 288 291 297 306 301 301 304 298 298 296 294 296 294 298 298 291 299 301 302 302 300 299 299 297 297 298 298 298 299 299 298
302 300 298 298 298 298 298 298 299 299 301 301 302 302 302 302 300 303 306 307 306 299 290 290 289 291 306 303 303 302 303 293 299 292 293 297 295 293 299 300 300 301 300 299 298 298 297 296 296 297 296 297 296 297
301 299 298 297 297 297 298 299 299 299 300 302 302 301 297 298 300 303 302 297 294 295 293 288 295 291 297 297 299 300 301 296 292 296 300 298 296 302 302 305 304 303 301 300 296 295 296 295 295 296 295 297 297 297
299 298 297 297 297 297 298 298 299 299 300 298 295 295 300 304 299 297 294 292 292 288 291 293 295 292 300 293 296 302 298 299 292 296 296 295 296 301 304 303 305 305 303 301 300 299 298 297 297 296 295 297 297 298
298 297 297 296 297 297 298 298 298 297 296 295 295 298 300 297 294 290 292 295 294 292 296 296 299 299 300 303 297 301 295 297 290 300 295 292 297 301 304 304 305 304 303 301 301 299 299 298 299 296 296 297 296 297
298 297 296 296 296 297 298 298 298 298 299 301 296 293 294 293 286 286 285 290 289 291 293 292 291 299 298 300 296 297 292 293 301 294 293 296 300 303 305 305 305 305 303 302 300 300 300 298 299 297 295 297 297 296
297 296 296 296 297 297 298 298 298 298 298 294 290 284 288 288 290 291 291 291 296 296 296 296 294 294 298 293 293 290 296 298 291 289 288 295 303 303 305 305 305 304 303 302 301 300 299 298 297 298 297 298 297 295
296 296 296 297 298 297 297 298 299 299 297 291 290 283 288 292 292 292 293 293 295 296 295 293 294 297 294 290 290 289 291 289 292 292 296 302 305 305 306 305 305 305 305 303 302 300 299 299 297 296 297 297 297 296
296 295 296 297 295 296 298 299 300 299 295 291 290 287 290 290 289 291 291 291 296 296 297 297 293 292 291 290 288 288 289 288 293 298 301 305 306 306 308 307 306 306 305 305 303 302 301 300 299 298 297 297 296 295
295 294 297 296 297 298 298 298 297 291 291 288 289 294 292 291 290 290 292 292 296 294 290 290 289 288 292 290 286 285 285 287 295 299 302 304 305 307 308 308 308 308 307 306 304 303 302 303 303 301 297 297 297 296
294 296 297 296 297 301 300 299 295 292 288 292 289 291 292 293 291 293 293 295 293 292 291 287 291 287 286 285 285 288 294 298 300 300 299 302 307 305 307 308 308 307 306 306 305 305 303 303 301 302 301 301 300 299
296 298 296 295 296 296 293 294 297 289 291 292 293 294 293 294 296 296 296 297 297 296 294 291 288 287 285 289 290 293 296 297 298 300 301 306 307 304 304 306 309 308 308 308 307 304 304 306 303 303 301 301 299 299
296 296 295 295 295 296 290 293 298 292 289 292 294 292 293 294 296 296 298 297 297 294 291 288 284 286 286 289 293 294 296 298 298 297 298 302 307 305 306 305 308 309 307 308 307 301 303 303 303 303 302 301 300 299
294 298 296 296 298 297 294 294 292 294 293 291 293 293 292 295 295 293 292 294 290 286 284 286 286 288 291 292 295 295 297 297 296 297 297 299 302 305 307 308 307 308 306 306 305 304 301 304 302 304 303 301 301 301
297 296 298 297 294 294 293 296 293 294 292 292 292 293 292 291 290 292 293 289 287 287 288 288 288 288 290 290 291 293 294 295 297 298 297 298 300 303 305 307 307 305 306 308 307 305 305 304 304 304 301 300 300 301
295 296 296 295 289 289 287 297 290 292 288 289 292 289 290 291 294 297 289 289 289 291 290 289 290 291 291 291 291 291 291 291 293 295 297 298 300 303 305 306 310 307 306 307 308 309 307 299 302 303 302 302 301 300
293 294 290 289 289 286 292 290 292 290 290 289 288 286 288 291 295 291 285 287 289 291 289 288 290 289 290 289 288 288 288 288 288 290 293 292 294 298 301 305 308 308 308 307 309 309 307 307 300 303 303 301 300 301
287 285 288 284 290 287 285 286 287 287 285 286 285 286 289 293 288 285 284 286 287 287 288 290 290 289 288 289 289 288 290 288 286 286 291 293 292 293 295 297 301 303 300 304 305 308 309 308 306 305 304 302 301 301
281 285 285 286 287 286 287 284 284 285 286 285 286 291 292 289 284 282 285 287 286 287 288 288 288 288 289 291 289 287 287 290 288 289 290 291 290 287 287 288 290 294 299 296 303 306 307 307 307 306 304 302 292 301
280 283 289 294 292 291 289 290 291 288 285 284 288 287 287 281 282 285 289 289 288 290 291 291 290 289 289 291 292 293 292 291 291 291 293 292 291 291 288 287 287 290 292 296 301 301 305 308 306 306 305 305 304 304
286 289 286 289 290 291 287 287 286 285 287 290 289 284 282 282 283 285 287 290 291 291 290 291 292 291 290 291 292 292 293 292 292 293 293 293 293 292 291 292 292 288 292 295 297 302 304 307 306 305 305 306 305 306
288 292 292 287 289 288 288 287 287 290 293 291 287 287 286 288 288 289 290 291 292 290 288 288 289 292 292 291 291 291 291 291 287 284 284 286 287 288 290 291 291 291 291 292 291 293 297 300 308 307 306 305 307 307
289 293 289 288 286 285 289 292 292 294 295 293 292 290 288 287 290 292 291 290 289 288 288 289 289 289 288 288 288 288 290 289 289 287 284 284 285 290 291 291 290 291 291 290 291 295 291 299 298 305 304 302 302 297
293 292 289 289 287 290 293 295 295 294 293 293 293 289 286 286 288 289 289 289 289 288 287 286 287 288 288 288 287 286 285 288 287 287 287 288 290 291 291 292 292 291 291 289 288 288 290 290 290 299 304 299 296 296
291 289 288 286 288 293 295 292 291 290 290 290 289 289 287 286 283 285 287 287 285 284 284 285 285 286 288 289 289 289 285 288 287 286 285 285 286 288 290 292 291 291 289 288 287 286 286 285 284 283 285 289 291 292
291 291 290 289 289 289 292 291 290 288 289 288 288 289 288 287 281 284 287 288 286 286 286 288 288 289 289 289 289 288 287 289 286 283 284 283 282 284 287 287 291 290 287 287 286 286 284 284 284 283 282 281 282 283
Wind_Speed
11 11 11 10 10 11 12 11 12 13 15 16 15 15 15 14 13 9 9 10 8 11 18 26 23 15 9 7 5 10 10 5 7 4 4 4 5 5 8 10 12 3 3 3 2 5 4 8 5 3 5 16 19 17
10 11 10 9 9 11 12 12 12 13 14 16 16 16 16 15 14 10 10 10 8 7 14 23 25 26 26 23 12 3 7 6 4 3 4 6 7 5 11 6 12 5 4 4 6 5 11 12 8 9 11 14 13 16
11 11 9 9 9 11 13 13 13 13 14 16 17 16 17 17 17 11 10 10 11 11 14 13 17 12 15 16 11 6 5 6 6 3 1 2 6 8 6 8 15 11 15 7 4 5 5 11 14 11 11 13 14 14
11 11 10 9 10 11 13 14 14 14 15 17 17 17 18 18 14 12 10 9 8 5 7 6 12 19 10 9 14 15 15 2 2 1 3 3 4 7 7 13 15 14 12 9 11 7 11 3 9 13 14 13 15 18
10 11 10 9 10 11 13 14 15 15 17 18 19 18 18 18 15 13 11 10 9 6 5 11 25 19 7 17 18 14 12 13 7 3 4 3 4 6 6 6 11 2 7 4 3 6 1 8 14 15 14 14 16 19
10 10 9 10 10 11 13 14 16 17 18 20 20 20 19 19 17 8 5 2 6 3 3 6 12 15 12 9 12 15 11 7 6 2 2 4 10 4 4 5 15 11 8 9 3 5 5 13 15 14 14 16 17 14
10 10 9 10 11 12 13 15 18 18 20 22 22 22 21 19 8 7 4 2 3 4 2 6 7 4 7 8 6 4 5 3 2 2 4 5 11 6 4 11 19 13 14 9 9 9 14 11 12 15 12 16 15 10
11 9 8 9 11 12 14 17 18 20 23 25 24 23 19 14 9 7 8 12 8 2 3 4 7 8 7 4 4 6 5 3 4 3 4 4 6 4 6 15 9 10 10 12 12 11 9 13 13 10 11 13 12 11
11 9 8 9 10 13 14 17 19 22 24 27 25 25 5 4 4 0 3 11 3 2 4 3 5 8 1 3 3 4 4 5 4 4 5 5 4 6 10 14 8 11 12 10 13 9 12 14 15 10 12 13 13 11
11 9 7 8 9 12 14 17 18 22 27 30 11 7 5 2 3 8 6 3 4 3 3 5 9 14 11 11 3 2 5 4 4 8 5 6 7 5 9 10 7 9 12 12 10 11 12 15 13 11 12 11 11 11
11 9 7 7 9 11 13 13 17 23 19 6 6 4 7 8 5 6 4 6 5 4 5 6 10 8 9 8 8 4 3 3 4 4 5 4 0 1 10 7 8 7 12 10 8 8 9 10 11 8 11 12 13 13
11 9 7 6 10 10 12 12 16 11 8 10 9 9 5 4 4 4 4 4 7 3 2 5 1 2 2 3 4 4 3 3 4 5 3 2 3 11 10 9 6 7 11 9 10 8 13 13 11 10 9 11 12 13
11 8 6 8 10 9 11 11 15 17 16 5 5 4 3 3 3 5 5 4 4 6 7 6 10 4 3 3 4 4 3 6 8 3 1 5 4 11 10 6 6 6 9 8 12 10 14 14 12 11 10 10 11 13
10 8 7 10 10 10 11 11 14 12 6 4 3 3 4 2 4 3 7 7 4 6 7 5 6 2 2 2 4 4 5 4 3 3 5 9 3 5 9 9 4 7 8 10 11 11 14 15 13 13 12 11 11 12
8 8 10 12 9 5 9 13 14 6 5 4 4 3 3 6 10 12 11 11 10 9 8 6 9 7 2 2 2 4 5 4 1 3 4 11 7 4 11 9 3 8 6 10 10 9 12 13 13 11 12 10 10 9
7 9 7 10 4 7 11 14 5 3 2 3 4 6 7 9 9 10 10 8 8 10 11 6 7 4 4 1 3 4 4 5 6 7 8 11 10 1 6 6 5 2 6 7 9 8 11 10 12 12 11 11 10 10
5 4 12 7 6 10 12 5 4 4 3 3 5 6 6 8 9 9 9 7 8 6 4 3 7 5 6 2 3 6 4 4 9 10 11 15 17 16 4 8 4 9 9 6 6 7 8 8 9 10 11 11 10 12
4 7 7 2 4 4 7 6 3 4 6 7 6 5 5 6 7 7 7 6 6 7 5 3 4 2 3 5 3 3 6 9 9 9 13 15 10 12 14 5 8 11 5 4 6 4 3 7 7 8 12 11 10 12
5 4 5 2 4 5 3 5 3 4 3 4 4 5 7 7 6 9 9 5 8 8 4 3 3 5 5 5 11 11 11 10 8 9 7 10 12 12 11 14 3 8 7 6 4 7 5 7 7 6 9 8 9 8
6 3 2 4 3 4 5 3 2 4 4 4 3 5 6 8 9 8 7 7 6 5 7 7 5 6 7 10 12 11 12 10 11 11 12 12 10 10 12 9 6 3 3 6 6 7 6 5 8 7 7 8 8 9
8 5 7 4 7 5 4 2 4 1 3 4 4 6 4 7 5 6 6 6 7 5 5 6 8 9 11 10 9 10 12 12 9 9 9 10 13 9 7 6 8 1 3 5 5 3 4 7 5 7 8 8 8 8
4 9 4 5 4 5 4 3 4 4 3 3 4 4 3 4 4 4 8 8 5 4 4 5 7 7 9 12 13 12 12 14 13 11 10 11 10 12 11 9 6 6 7 5 7 4 7 7 6 8 9 9 7 6
4 2 4 4 4 1 5 3 4 2 1 3 3 3 3 3 2 2 4 4 4 4 4 5 9 9 10 11 13 13 14 15 10 11 12 11 12 12 12 11 5 1 4 4 7 4 4 10 7 9 8 8 8 7
2 4 5 5 7 4 3 5 3 3 4 3 2 1 2 2 2 2 4 3 4 6 8 11 8 8 9 13 9 8 9 10 9 10 10 9 9 10 12 12 12 5 7 4 7 2 6 8 9 9 9 10 9 8
3 4 3 4 5 5 5 5 6 3 5 3 1 2 2 2 1 3 3 2 5 7 7 9 8 8 7 8 9 10 9 8 7 8 7 9 10 10 10 11 12 10 11 10 8 9 8 9 10 10 10 10 10 11
5 6 6 9 5 6 6 5 7 7 1 2 3 2 1 1 2 4 3 4 4 5 6 7 7 7 8 8 7 9 10 9 7 6 7 9 8 9 9 10 11 10 11 12 9 10 14 7 9 12 11 11 8 12
5 7 6 6 7 6 4 5 3 3 5 4 3 5 1 1 3 4 4 4 3 4 5 5 5 6 7 7 8 7 7 9 10 7 4 6 7 7 9 9 11 11 14 13 10 8 11 3 5 10 10 11 11 11
6 6 11 7 6 3 5 5 5 5 5 3 1 4 5 2 3 3 2 1 1 2 4 6 5 5 7 7 7 7 9 10 11 11 5 7 8 7 11 9 9 15 13 12 12 11 8 4 7 12 7 11 12 10
6 6 8 9 6 3 5 6 6 4 2 0 3 3 4 4 3 2 1 1 3 4 5 6 7 6 5 5 7 8 9 9 15 21 21 13 13 12 12 11 11 11 11 13 15 10 12 8 9 4 9 8 9 9
8 7 4 9 7 7 6 6 2 6 3 5 7 9 9 6 3 2 3 4 4 4 5 6 6 7 7 8 8 10 9 10 10 10 11 11 11 11 11 12 13 12 11 12 13 15 12 8 3 7 5 2 7 6
7 8 6 6 7 10 8 10 7 5 4 4 4 8 8 5 5 5 6 5 4 6 5 5 6 8 8 8 8 9 9 9 13 15 13 10 10 11 11 11 11 11 11 13 12 12 12 13 13 8 8 8 6 11
9 10 9 7 5 6 10 9 8 5 6 5 6 8 6 6 4 3 4 5 5 4 3 4 5 6 8 8 9 8 7 8 10 12 15 11 12 13 12 10 10 11 13 14 13 15 16 15 15 19 16 14 10 9
7 8 10 7 5 8 8 7 6 6 6 6 4 4 3 3 4 3 4 4 3 3 5 4 4 5 6 8 9 8 7 8 8 7 5 5 9 12 11 11 10 12 15 13 15 15 18 21 18 19 20 21 20 17
Wind_Direction
277 283 290 298 307 315 317 325 331 332 328 324 325 325 320 319 317 313 299 299 274 270 285 278 275 282 284 258 251 303 314 18 301 278 304 339 324 328 317 313 297 279 270 262 282 274 299 258 37 215 293 295 297 303
273 278 287 286 302 308 310 317 324 327 322 323 320 318 315 315 309 304 286 279 289 267 281 298 286 279 265 264 265 229 267 324 282 317 343 326 319 298 318 295 317 318 283 261 205 251 322 341 306 285 276 275 289 295
269 272 274 286 296 303 306 312 318 321 323 316 317 316 309 310 305 297 294 300 284 278 290 262 275 246 231 232 214 205 210 221 244 324 42 280 274 314 302 300 306 299 299 244 270 248 288 318 303 318 294 292 305 295
264 274 268 278 289 298 303 309 313 321 318 316 312 307 302 305 309 308 284 286 287 309 283 293 322 323 299 213 197 202 230 149 227 59 264 266 264 273 291 293 293 287 309 304 280 305 313 349 323 317 305 316 304 297
257 263 267 278 287 296 301 308 312 316 315 311 309 306 306 306 307 296 274 261 249 253 300 310 305 276 263 218 209 203 223 238 237 234 210 232 251 276 292 298 271 349 269 325 293 33 351 293 324 324 329 314 302 301
249 251 263 277 288 297 304 307 310 314 313 311 308 306 306 307 311 286 302 82 203 187 307 295 316 294 263 182 183 204 210 226 226 227 237 240 263 274 267 268 284 322 9 59 36 9 12 327 319 325 309 306 308 311
239 240 253 274 289 298 305 308 310 313 311 308 305 306 304 298 272 242 1 20 55 97 245 284 265 212 222 167 173 192 178 177 179 175 228 251 264 234 245 267 281 299 92 86 64 11 349 332 316 311 332 317 315 323
228 232 249 272 289 300 307 309 313 314 309 305 300 301 304 295 257 273 260 161 145 216 241 271 273 264 204 208 207 166 175 147 188 225 224 240 261 205 248 255 276 37 18 72 47 50 358 321 339 341 334 331 343 352
219 225 244 272 290 303 308 312 316 314 307 301 300 299 282 214 211 122 63 154 173 242 263 251 285 298 191 253 173 194 165 201 185 222 223 225 212 223 237 262 8 36 39 40 45 8 1 353 344 2 349 347 358 6
210 220 239 266 293 300 310 317 322 321 310 300 291 205 170 22 252 170 172 199 185 202 233 254 257 272 297 306 286 287 175 223 214 214 213 216 246 265 3 292 28 34 72 56 21 359 360 358 352 6 -0 358 357 15
204 217 234 266 287 297 311 331 333 327 291 333 337 356 338 339 269 218 217 208 157 230 212 238 235 260 270 264 301 239 297 222 246 168 222 219 339 334 238 82 74 30 67 78 84 336 42 17 3 39 4 7 13 16
203 213 234 264 278 294 310 318 331 323 344 324 300 291 282 275 244 286 258 228 202 305 204 304 261 282 297 307 269 264 277 280 281 246 249 310 132 235 249 93 70 47 63 55 61 9 45 42 26 54 17 20 19 13
201 213 235 258 273 292 304 299 316 312 302 238 197 234 251 265 288 240 302 28 342 355 344 330 311 350 341 236 255 282 268 256 319 283 27 23 307 261 112 108 74 33 63 56 66 25 61 57 52 58 32 18 31 29
198 217 244 259 273 288 290 290 308 313 276 272 298 270 259 252 12 301 299 328 2 292 311 304 306 311 258 268 336 281 263 281 261 278 68 271 190 91 92 98 53 43 57 52 54 52 50 72 49 60 44 26 38 37
205 236 254 264 262 256 278 288 290 276 271 286 302 249 273 341 325 335 341 346 352 320 315 299 272 193 194 261 230 280 260 240 260 24 19 317 23 88 81 62 87 34 10 67 59 51 67 70 76 65 66 55 48 58
221 265 227 174 208 273 283 282 232 265 275 271 259 283 304 335 328 324 328 326 349 334 303 315 273 266 172 240 257 250 260 48 358 7 340 331 14 355 120 102 94 132 66 72 71 50 69 69 81 84 78 67 50 50
204 254 156 176 250 277 273 263 195 205 273 256 238 257 298 327 335 329 326 309 289 267 4 347 315 1 294 259 342 16 339 289 347 357 340 346 338 343 329 136 137 108 41 74 80 80 86 82 96 97 83 84 79 65
249 140 147 158 299 239 205 227 240 224 233 224 273 344 343 322 309 325 304 306 311 309 286 336 258 261 316 20 340 304 313 349 360 1 353 316 328 7 355 333 127 108 145 248 100 105 89 100 77 101 123 102 94 98
16 79 95 49 325 294 211 212 252 273 288 318 312 348 326 320 324 355 333 309 305 310 304 300 314 41 0 341 336 344 346 349 358 346 307 346 10 24 347 328 223 122 191 133 125 89 64 39 74 76 84 78 89 85
258 278 234 264 252 251 213 197 201 249 260 337 304 308 322 46 31 350 348 348 7 4 2 32 24 347 330 320 323 329 327 337 353 338 339 338 349 350 328 306 326 196 312 138 127 136 144 122 73 70 73 86 92 99
165 179 204 205 203 253 290 253 239 209 301 296 298 305 330 72 44 45 36 57 44 44 10 356 333 326 319 309 317 339 332 346 329 318 315 323 326 317 329 36 327 342 109 265 170 142 140 97 121 114 92 83 86 86
125 167 230 181 240 193 256 204 294 342 242 269 301 293 28 46 70 52 67 59 63 38 360 330 325 317 328 345 334 328 330 329 319 309 335 328 324 325 330 327 19 84 311 311 302 200 130 130 133 104 106 121 126 113
192 173 232 195 218 161 257 237 241 290 317 279 297 294 80 85 81 157 75 60 82 38 359 331 334 339 349 349 358 355 352 343 333 331 324 335 328 328 328 327 332 43 252 232 247 219 158 124 133 131 135 123 119 123
159 234 215 196 190 220 218 185 181 207 242 235 262 333 69 59 49 86 86 60 9 10 4 353 342 349 357 8 4 357 354 345 334 327 335 326 320 328 324 328 344 7 312 321 266 277 171 158 147 148 156 140 151 149
200 229 162 231 231 196 201 199 179 200 256 145 248 180 190 160 115 81 82 58 13 9 351 347 350 348 343 354 3 4 350 345 333 318 335 1 349 343 344 341 349 18 14 352 20 288 243 178 177 169 166 159 169 151
220 210 193 198 188 197 194 166 186 211 203 204 216 143 138 132 78 84 72 30 16 357 342 343 341 336 350 359 1 7 353 346 340 347 7 357 7 1 346 346 347 338 8 344 318 313 291 256 192 181 180 163 161 154
222 216 195 244 187 178 195 191 189 148 204 224 160 168 120 131 131 103 112 51 356 347 328 322 339 342 350 3 8 19 6 357 356 346 334 359 354 8 350 345 341 328 322 312 338 337 323 223 256 242 183 172 177 176
242 227 191 197 175 161 208 173 198 217 201 159 356 117 151 148 68 55 56 9 178 294 3 339 359 357 11 12 11 15 14 9 8 5 2 14 18 14 353 344 340 330 335 333 325 318 328 255 262 301 195 176 176 194
226 233 158 180 146 165 213 203 217 187 84 128 156 105 86 71 107 159 121 21 37 31 20 357 352 354 22 41 27 19 33 17 9 12 8 1 354 355 347 349 348 349 342 336 328 315 331 295 232 249 299 173 169 177
205 198 161 175 171 206 199 201 139 80 66 63 97 101 96 109 129 71 50 36 31 32 16 2 349 358 17 15 23 20 38 38 24 18 357 356 347 333 342 354 353 354 352 347 344 343 344 345 203 142 198 119 127 105
184 171 171 181 201 226 156 124 123 137 141 126 115 130 129 139 104 61 29 359 28 42 21 8 357 2 7 14 18 18 9 36 22 19 13 359 356 348 352 0 1 1 2 6 2 6 22 33 17 349 132 117 111 125
185 185 172 188 205 124 153 148 144 153 153 170 131 132 134 155 129 84 38 14 37 33 5 341 5 357 1 8 4 16 351 41 26 20 17 9 5 357 360 359 18 10 17 18 18 20 22 42 47 42 24 36 48 81
183 192 174 190 212 187 186 144 153 155 154 173 159 142 121 110 97 109 104 67 33 340 342 342 339 358 355 13 8 356 358 38 94 61 28 32 13 3 15 4 14 32 25 26 32 31 34 40 46 52 57 50 44 43